Flag for Norway Weather past 2 weeks in Namsos, Norway

Now
59 °F

Light rain. Broken clouds.


Feels Like: 58 °F
Forecast: 56 / 65 °F
Wind: 8 mph from Northeast

Location: Namsos Lufthavn

Current Time: Aug 5, 2015 at 11:19:21 AM

Latest Report: Aug 5, 2015 at 10:50 AM


Visibility: N/A

Pressure: 29.83 "Hg

Humidity: 94%

Dew point: 57 °F

Location of NamsosLocation

Historic Weather in Namsos — Graph

°F

Namsos temperature yesterday

Maximum temperature yesterday: 75 °F (at 4:20 PM)
Minimum temperature yesterday: 48 °F (at 5:50 AM)
Average temperature yesterday: 66 °F

Past Weeks' High & Low Weather Summary

 TemperatureHumidityPressure
High75 °F (Aug 4, 4:20 PM)100% (Jul 24, 5:50 AM)30.15 "Hg (Jul 24, 5:50 AM)
Low45 °F (Jul 25, 6:20 AM)40% (Jul 21, 2:50 PM)29.30 "Hg (Jul 27, 5:50 AM)
Average57 °F75%29.72 "Hg
* Reported Jul 21 9:20 AM — Aug 5 9:50 AM, Namsos, Weather by CustomWeather, © 2015

Note: Actual official high and low records may vary slightly from our data, if they occured in-between our weather recording intervals... More about our weather records

Advertising

Namsos weather history for previous 24 hours

 ConditionsComfort  
Time TempWeatherWind HumidityBarometerVisibility
9:50 AM
Wed, Aug 5
59 °FLight rain. Broken clouds.8 mph94%29.83 "HgN/A
8:50 AM59 °FLight rain. Broken clouds.6 mph88%29.80 "HgN/A
7:20 AM63 °FSprinkles. Broken clouds.12 mph83%29.80 "HgN/A
6:50 AM61 °FSprinkles. Partly sunny.10 mph88%29.80 "HgN/A
6:20 AM61 °FSprinkles. Partly sunny.12 mph88%29.83 "HgN/A
5:50 AM63 °FSprinkles. Partly sunny.10 mph83%29.83 "HgN/A
9:50 PM
Tue, Aug 4
68 °FSunny.5 mph60%29.86 "Hg10 mi
9:20 PM72 °FSunny.5 mph50%29.86 "Hg10 mi
8:50 PM72 °FPassing clouds.6 mph50%29.86 "HgN/A
8:20 PM72 °FSunny.3 mph50%29.86 "Hg10 mi
7:20 PM72 °FPassing clouds.7 mph50%29.86 "HgN/A
6:50 PM72 °FPassing clouds.7 mph50%29.86 "HgN/A
6:20 PM73 °FPassing clouds.9 mph47%29.86 "HgN/A
5:50 PM73 °FPassing clouds.9 mph47%29.86 "HgN/A
5:20 PM73 °FPassing clouds.7 mph47%29.86 "HgN/A
4:50 PM73 °FSunny.5 mph47%29.86 "Hg10 mi
4:20 PM75 °FPassing clouds.9 mph44%29.89 "HgN/A
3:50 PM72 °FSunny.7 mph50%29.86 "Hg10 mi
3:20 PM72 °FSunny.14 mph47%29.89 "Hg10 mi
2:50 PM73 °FPassing clouds.14 mph44%29.89 "HgN/A
2:20 PM72 °FPassing clouds.9 mph44%29.89 "HgN/A
1:50 PM72 °FPassing clouds.15 mph41%29.89 "HgN/A
1:20 PM72 °FPassing clouds.14 mph41%29.92 "HgN/A
12:50 PM70 °FPassing clouds.17 mph43%29.92 "HgN/A
11:50 AM70 °FPassing clouds.14 mph46%29.92 "HgN/A
11:20 AM68 °FPassing clouds.13 mph53%29.95 "HgN/A
Weather by CustomWeather, © 2015

See weather overviewHow to use our weather pages